Flag for Germany Weather past 2 weeks in Cottbus, Brandenburg, Germany

Now
34 °F

Overcast.


Feels Like: 34 °F
Forecast: 36 / 50 °F
Wind: 1 mph from West

Location: Cottbus

Current Time: Mar 6, 2015 at 1:30:08 AM

Latest Report: Mar 6, 2015 at 1:00 AM


Visibility: 6 mi

Pressure: 30.56 "Hg

Humidity: 98%

Dew point: 33 °F

Location of CottbusLocation

Historic Weather in Cottbus — Graph

°F

Cottbus temperature yesterday

Maximum temperature yesterday: 44 °F (at 2:00 PM)
Minimum temperature yesterday: 36 °F (at 12:00 AM)
Average temperature yesterday: 39 °F

Past Weeks' High & Low Weather Summary

 TemperatureHumidityPressure
High52 °F (Feb 21, 3:00 PM)99% (Feb 25, 6:00 AM)30.60 "Hg (Feb 25, 6:00 AM)
Low23 °F (Feb 26, 7:00 AM)42% (Feb 26, 3:00 PM)29.41 "Hg (Feb 21, 3:00 PM)
Average39 °F76%29.94 "Hg
* Reported Midnight between Feb 18 and Feb 19 — Midnight between Mar 5 and Mar 6, Cottbus, Weather by CustomWeather, © 2015

Note: Actual official high and low records may vary slightly from our data, if they occured in-between our weather recording intervals... More about our weather records

Advertising

Cottbus weather history for previous 24 hours

 ConditionsComfort  
Time TempWeatherWind HumidityBarometerVisibility
12:00 AM
Fri, Mar 6
35 °FOvercast.1 mph97%30.55 "Hg9 mi
10:00 PM
Thu, Mar 5
37 °FOvercast.1 mph91%30.55 "Hg19 mi
9:00 PM36 °FPassing clouds.2 mph93%30.54 "Hg22 mi
8:00 PM38 °FOvercast.2 mph90%30.53 "Hg22 mi
7:00 PM38 °FOvercast.2 mph91%30.52 "Hg28 mi
6:00 PM42 °FOvercast.1 mph66%30.50 "Hg43 mi
5:00 PM44 °FPartly sunny.3 mph58%30.49 "Hg37 mi
4:00 PM43 °FOvercast.5 mph59%30.50 "Hg37 mi
3:00 PM43 °FOvercast.6 mph60%30.48 "Hg31 mi
2:00 PM44 °FPartly sunny.5 mph57%30.47 "Hg37 mi
1:00 PM43 °FScattered clouds.5 mph57%30.47 "Hg31 mi
12:00 PM43 °FScattered clouds.6 mph58%30.47 "Hg19 mi
11:00 AM41 °FPartly sunny.5 mph65%30.47 "Hg22 mi
10:00 AM39 °FLow clouds.5 mph83%30.45 "Hg17 mi
9:00 AM38 °FLow clouds.3 mph88%30.43 "Hg9 mi
8:00 AM37 °FLow clouds.2 mph94%30.40 "Hg4 mi
7:00 AM37 °FLow clouds.2 mph92%30.37 "Hg6 mi
6:00 AM37 °FLow clouds.2 mph91%30.36 "Hg6 mi
5:00 AM37 °FOvercast.3 mph90%30.33 "Hg6 mi
4:00 AM37 °FOvercast.3 mph88%30.31 "Hg7 mi
3:00 AM37 °FOvercast.3 mph88%30.30 "Hg7 mi
2:00 AM37 °FDrizzle. Low clouds.5 mph88%30.29 "Hg7 mi
1:00 AM37 °FOvercast.3 mph79%30.27 "Hg17 mi
Weather by CustomWeather, © 2015

See weather overviewHow to use our weather pages